SLI158 MMMY-MMGL

Flight info

Callsign SLI158
Flight time 1h 16m
Altitude 32000
Route KERGA1A KERGA UT44 MEZCA MEZCA1B
Aircraft E170/M-SDE3GILORVW/S

Departure

Time 2026-04-22 02:14
Airport Monterrey International Airport (MMMY)

Arrival

Time 2026-04-22 03:31
Airport Guadalajara International Airport (MMGL)
Time Latitude Longitude Altitude Speed Heading
2026-04-22 01:42 25.77583 -100.10896 1272 ft 0 kts 75°
2026-04-22 01:58 25.77582 -100.10900 1272 ft 3 kts 75°
2026-04-22 01:58 25.77573 -100.10928 1272 ft 4 kts 62°
2026-04-22 01:59 25.77555 -100.10946 1273 ft 4 kts
2026-04-22 01:59 25.77548 -100.10945 1272 ft 2 kts 346°
2026-04-22 02:03 25.77562 -100.10949 1272 ft 5 kts 345°
2026-04-22 02:04 25.77673 -100.11030 1271 ft 13 kts 295°
2026-04-22 02:04 25.77718 -100.11113 1271 ft 10 kts 301°
2026-04-22 02:04 25.77776 -100.11124 1271 ft 10 kts 32°
2026-04-22 02:05 25.77835 -100.11088 1271 ft 7 kts
2026-04-22 02:05 25.77855 -100.11106 1273 ft 4 kts 308°
2026-04-22 02:05 25.77878 -100.11140 1274 ft 6 kts 303°
2026-04-22 02:05 25.77904 -100.11188 1273 ft 8 kts 302°
2026-04-22 02:06 25.77931 -100.11239 1274 ft 5 kts 301°
2026-04-22 02:06 25.77943 -100.11261 1274 ft 3 kts 301°
2026-04-22 02:06 25.77953 -100.11280 1274 ft 3 kts 300°
2026-04-22 02:06 25.77968 -100.11308 1275 ft 5 kts 301°
2026-04-22 02:07 25.77990 -100.11346 1275 ft 7 kts 301°
2026-04-22 02:07 25.78017 -100.11396 1276 ft 8 kts 302°
2026-04-22 02:07 25.78050 -100.11456 1277 ft 10 kts 301°
2026-04-22 02:07 25.78090 -100.11528 1279 ft 12 kts 302°
2026-04-22 02:08 25.78135 -100.11608 1280 ft 13 kts 300°
2026-04-22 02:08 25.78172 -100.11676 1281 ft 10 kts 301°
2026-04-22 02:08 25.78208 -100.11743 1285 ft 9 kts 302°
2026-04-22 02:08 25.78222 -100.11768 1283 ft 0 kts 302°
2026-04-22 02:09 25.78223 -100.11769 1283 ft 1 kts 302°
2026-04-22 02:09 25.78231 -100.11783 1283 ft 4 kts 304°
2026-04-22 02:10 25.78256 -100.11807 1284 ft 6 kts 346°
2026-04-22 02:10 25.78294 -100.11792 1285 ft 7 kts 32°
2026-04-22 02:10 25.78325 -100.11770 1286 ft 0 kts 30°
2026-04-22 02:10 25.78328 -100.11768 1288 ft 1 kts 30°
2026-04-22 02:11 25.78349 -100.11754 1286 ft 6 kts 31°
2026-04-22 02:11 25.78396 -100.11716 1286 ft 9 kts 58°
2026-04-22 02:11 25.78384 -100.11651 1286 ft 8 kts 126°
2026-04-22 02:11 25.78378 -100.11640 1285 ft 0 kts 123°
2026-04-22 02:13 25.78377 -100.11640 1285 ft 1 kts 123°
2026-04-22 02:14 25.78292 -100.11485 1281 ft 63 kts 121°
2026-04-22 02:14 25.77909 -100.10794 1268 ft 146 kts 121°
2026-04-22 02:14 25.77337 -100.09701 1835 ft 174 kts 118°
2026-04-22 02:14 25.76761 -100.08429 2859 ft 193 kts 116°
2026-04-22 02:15 25.76038 -100.07051 3836 ft 214 kts 124°
2026-04-22 02:15 25.75202 -100.05691 5100 ft 217 kts 125°
2026-04-22 02:15 25.74354 -100.04258 6078 ft 225 kts 125°
2026-04-22 02:15 25.73507 -100.02761 6803 ft 231 kts 124°
2026-04-22 02:16 25.72652 -100.01220 7510 ft 240 kts 125°
2026-04-22 02:16 25.71762 -99.99640 8486 ft 248 kts 127°
2026-04-22 02:16 25.70560 -99.98264 9505 ft 249 kts 150°
2026-04-22 02:16 25.68937 -99.97578 10450 ft 252 kts 173°
2026-04-22 02:17 25.67192 -99.97464 11340 ft 257 kts 182°
2026-04-22 02:17 25.65359 -99.97439 12136 ft 268 kts 184°
2026-04-22 02:17 25.63465 -99.97445 12968 ft 274 kts 185°
2026-04-22 02:17 25.61561 -99.97462 13814 ft 278 kts 185°
2026-04-22 02:18 25.59613 -99.97484 14654 ft 281 kts 186°
2026-04-22 02:18 25.57645 -99.97519 15444 ft 284 kts 186°
2026-04-22 02:18 25.55652 -99.97563 16202 ft 288 kts 187°
2026-04-22 02:18 25.53564 -99.97636 16393 ft 312 kts 188°
2026-04-22 02:19 25.51326 -99.97754 16589 ft 332 kts 188°
2026-04-22 02:19 25.48943 -99.97874 16757 ft 350 kts 187°
2026-04-22 02:19 25.46503 -99.97990 17148 ft 358 kts 187°
2026-04-22 02:19 25.44007 -99.98094 17844 ft 354 kts 187°
2026-04-22 02:20 25.41553 -99.98196 18614 ft 349 kts 188°
2026-04-22 02:20 25.39148 -99.98312 19102 ft 351 kts 188°
2026-04-22 02:20 25.36641 -99.98455 19229 ft 365 kts 188°
2026-04-22 02:20 25.34062 -99.98606 19354 ft 376 kts 188°
2026-04-22 02:21 25.31431 -99.98731 19818 ft 375 kts 187°
2026-04-22 02:21 25.28872 -99.98842 20545 ft 367 kts 187°
2026-04-22 02:21 25.26333 -99.98957 21082 ft 366 kts 188°
2026-04-22 02:21 25.23752 -99.99082 21248 ft 374 kts 188°
2026-04-22 02:22 25.21110 -99.99215 21294 ft 384 kts 188°
2026-04-22 02:22 25.18491 -99.99335 22026 ft 372 kts 188°
2026-04-22 02:22 25.15905 -99.99450 22599 ft 375 kts 188°
2026-04-22 02:22 25.13263 -99.99587 22913 ft 390 kts 188°
2026-04-22 02:23 25.10556 -99.99723 23798 ft 387 kts 188°
2026-04-22 02:23 25.07848 -99.99853 24541 ft 392 kts 188°
2026-04-22 02:23 25.05125 -99.99975 25152 ft 397 kts 188°
2026-04-22 02:23 25.02356 -100.00097 25775 ft 399 kts 188°
2026-04-22 02:24 24.99587 -100.00205 26166 ft 403 kts 188°
2026-04-22 02:24 24.96769 -100.00357 26729 ft 406 kts 190°
2026-04-22 02:24 24.94045 -100.00955 27211 ft 398 kts 207°
2026-04-22 02:24 24.91601 -100.02351 27778 ft 394 kts 216°
2026-04-22 02:25 24.89225 -100.03880 28299 ft 397 kts 216°
2026-04-22 02:25 24.86822 -100.05433 28817 ft 399 kts 216°
2026-04-22 02:25 24.84458 -100.06978 29340 ft 401 kts 217°
2026-04-22 02:25 24.82031 -100.08549 29820 ft 404 kts 216°
2026-04-22 02:26 24.79581 -100.10127 30292 ft 406 kts 216°
2026-04-22 02:26 24.77155 -100.11689 30723 ft 408 kts 216°
2026-04-22 02:26 24.74700 -100.13267 31170 ft 409 kts 216°
2026-04-22 02:26 24.72260 -100.14844 31593 ft 410 kts 216°
2026-04-22 02:27 24.69786 -100.16442 32025 ft 410 kts 216°
2026-04-22 02:27 24.67301 -100.18048 32183 ft 418 kts 216°
2026-04-22 02:27 24.64793 -100.19685 32171 ft 429 kts 216°
2026-04-22 02:27 24.62184 -100.21391 32043 ft 443 kts 216°
2026-04-22 02:28 24.59501 -100.23142 32044 ft 452 kts 216°
2026-04-22 02:28 24.54070 -100.26663 32013 ft 447 kts 216°
2026-04-22 02:29 24.48819 -100.30063 32034 ft 434 kts 216°
2026-04-22 02:29 24.43688 -100.33389 32042 ft 424 kts 216°
2026-04-22 02:30 24.38631 -100.36668 32049 ft 416 kts 216°
2026-04-22 02:30 24.33689 -100.39868 32063 ft 409 kts 216°
2026-04-22 02:31 24.28835 -100.43005 32055 ft 403 kts 216°
2026-04-22 02:31 24.24052 -100.46098 32053 ft 398 kts 216°
2026-04-22 02:32 24.19300 -100.49166 32059 ft 394 kts 216°
2026-04-22 02:32 24.14596 -100.52198 32054 ft 390 kts 216°
2026-04-22 02:33 24.09925 -100.55211 32061 ft 387 kts 216°
2026-04-22 02:33 24.05296 -100.58192 32055 ft 385 kts 216°
2026-04-22 02:34 24.00692 -100.61151 32057 ft 383 kts 217°
2026-04-22 02:34 23.96122 -100.64090 32049 ft 382 kts 216°
2026-04-22 02:35 23.91549 -100.67025 32065 ft 380 kts 216°
2026-04-22 02:35 23.86995 -100.69950 32074 ft 379 kts 216°
2026-04-22 02:36 23.82466 -100.72850 32062 ft 378 kts 216°
2026-04-22 02:36 23.77955 -100.75746 32065 ft 377 kts 216°
2026-04-22 02:37 23.73419 -100.78646 32073 ft 376 kts 216°
2026-04-22 02:37 23.68922 -100.81518 32118 ft 374 kts 216°
2026-04-22 02:38 23.64450 -100.84370 32113 ft 373 kts 216°
2026-04-22 02:38 23.59951 -100.87244 32116 ft 373 kts 216°
2026-04-22 02:39 23.55482 -100.90100 32109 ft 373 kts 216°
2026-04-22 02:39 23.51041 -100.92974 32107 ft 371 kts 221°
2026-04-22 02:40 23.46854 -100.96250 32124 ft 370 kts 221°
2026-04-22 02:40 23.42720 -100.99535 32138 ft 370 kts 221°
2026-04-22 02:41 23.38552 -101.02843 32154 ft 370 kts 221°
2026-04-22 02:41 23.34407 -101.06131 32158 ft 370 kts 221°
2026-04-22 02:42 23.30261 -101.09421 32169 ft 370 kts 221°
2026-04-22 02:42 23.26108 -101.12710 32168 ft 370 kts 221°
2026-04-22 02:43 23.21926 -101.16019 32167 ft 370 kts 221°
2026-04-22 02:43 23.17779 -101.19296 32164 ft 371 kts 221°
2026-04-22 02:44 23.13595 -101.22604 32168 ft 371 kts 221°
2026-04-22 02:44 23.09437 -101.25885 32163 ft 371 kts 221°
2026-04-22 02:45 23.05254 -101.29186 32181 ft 371 kts 221°
2026-04-22 02:45 23.01075 -101.32478 32178 ft 371 kts 221°
2026-04-22 02:46 22.96891 -101.35773 32176 ft 372 kts 221°
2026-04-22 02:46 22.92708 -101.39066 32174 ft 373 kts 221°
2026-04-22 02:47 22.88516 -101.42363 32184 ft 373 kts 221°
2026-04-22 02:47 22.84301 -101.45673 32196 ft 373 kts 221°
2026-04-22 02:48 22.80114 -101.48958 32190 ft 373 kts 221°
2026-04-22 02:48 22.75910 -101.52267 32192 ft 373 kts 221°
2026-04-22 02:49 22.71713 -101.55551 32191 ft 374 kts 220°
2026-04-22 02:49 22.67411 -101.58769 32193 ft 377 kts 213°
2026-04-22 02:49 22.64987 -101.59880 32189 ft 385 kts 202°
2026-04-22 02:50 22.62319 -101.60493 32229 ft 404 kts 192°
2026-04-22 02:50 22.59446 -101.60579 32277 ft 423 kts 181°
2026-04-22 02:50 22.56463 -101.60103 32265 ft 442 kts 172°
2026-04-22 02:50 22.53452 -101.59126 32187 ft 460 kts 166°
2026-04-22 02:51 22.50388 -101.57961 32180 ft 472 kts 165°
2026-04-22 02:51 22.44092 -101.55537 32182 ft 486 kts 165°
2026-04-22 02:52 22.37814 -101.53109 32169 ft 478 kts 165°
2026-04-22 02:52 22.31540 -101.50726 32167 ft 478 kts 168°
2026-04-22 02:52 22.28299 -101.50146 32192 ft 465 kts 184°
2026-04-22 02:53 22.25145 -101.50558 32202 ft 450 kts 200°
2026-04-22 02:53 22.22300 -101.51903 32221 ft 442 kts 216°
2026-04-22 02:53 22.19983 -101.53971 32238 ft 434 kts 231°
2026-04-22 02:54 22.16467 -101.59235 32184 ft 431 kts 239°
2026-04-22 02:54 22.13147 -101.64601 32188 ft 431 kts 239°
2026-04-22 02:55 22.09805 -101.70000 32192 ft 431 kts 239°
2026-04-22 02:55 22.06468 -101.75381 32189 ft 432 kts 239°
2026-04-22 02:56 22.03141 -101.80749 32194 ft 432 kts 239°
2026-04-22 02:56 21.99800 -101.86137 32323 ft 430 kts 239°
2026-04-22 02:57 21.96487 -101.91489 32294 ft 431 kts 238°
2026-04-22 02:57 21.93150 -101.96845 32306 ft 431 kts 238°
2026-04-22 02:58 21.89776 -102.02231 31845 ft 436 kts 238°
2026-04-22 02:58 21.88070 -102.04880 31388 ft 435 kts 238°
2026-04-22 02:58 21.86342 -102.07579 30930 ft 436 kts 238°
2026-04-22 02:58 21.84643 -102.10265 30478 ft 438 kts 239°
2026-04-22 02:59 21.82961 -102.13024 30035 ft 440 kts 239°
2026-04-22 02:59 21.81853 -102.14866 29728 ft 441 kts 240°
2026-04-22 02:59 21.79620 -102.18539 29142 ft 443 kts 239°
2026-04-22 02:59 21.78465 -102.20416 28832 ft 442 kts 239°
2026-04-22 03:00 21.76790 -102.23114 28383 ft 432 kts 239°
2026-04-22 03:00 21.75119 -102.25780 27924 ft 426 kts 238°
2026-04-22 03:00 21.73455 -102.28422 27460 ft 427 kts 238°
2026-04-22 03:00 21.71786 -102.31058 27024 ft 430 kts 238°
2026-04-22 03:01 21.69823 -102.33511 26565 ft 438 kts 224°
2026-04-22 03:01 21.67434 -102.35604 26131 ft 441 kts 221°
2026-04-22 03:01 21.65023 -102.37597 25686 ft 443 kts 220°
2026-04-22 03:01 21.62566 -102.39618 25233 ft 444 kts 220°
2026-04-22 03:02 21.60102 -102.41650 24785 ft 446 kts 220°
2026-04-22 03:02 21.57650 -102.43673 24309 ft 448 kts 220°
2026-04-22 03:02 21.55170 -102.45720 24208 ft 446 kts 220°
2026-04-22 03:02 21.52722 -102.47748 24248 ft 448 kts 220°
2026-04-22 03:03 21.50252 -102.49795 24324 ft 449 kts 220°
2026-04-22 03:03 21.47769 -102.51848 24306 ft 448 kts 220°
2026-04-22 03:03 21.45380 -102.53820 24244 ft 423 kts 220°
2026-04-22 03:03 21.43111 -102.55691 24217 ft 396 kts 220°
2026-04-22 03:04 21.40971 -102.57458 24347 ft 384 kts 220°
2026-04-22 03:04 21.38851 -102.59215 24338 ft 392 kts 220°
2026-04-22 03:04 21.36703 -102.60991 24312 ft 381 kts 220°
2026-04-22 03:04 21.34627 -102.62704 24311 ft 370 kts 220°
2026-04-22 03:05 21.32607 -102.64372 24346 ft 368 kts 220°
2026-04-22 03:05 21.30575 -102.66053 24333 ft 369 kts 220°
2026-04-22 03:05 21.28549 -102.67748 24295 ft 369 kts 221°
2026-04-22 03:05 21.26518 -102.69448 23779 ft 363 kts 220°
2026-04-22 03:06 21.24554 -102.71089 23288 ft 348 kts 220°
2026-04-22 03:06 21.22667 -102.72669 22840 ft 346 kts 220°
2026-04-22 03:06 21.20764 -102.74260 22399 ft 345 kts 220°
2026-04-22 03:06 21.18865 -102.75841 21934 ft 340 kts 220°
2026-04-22 03:07 21.17042 -102.77354 21484 ft 330 kts 220°
2026-04-22 03:07 21.15223 -102.78872 20950 ft 334 kts 220°
2026-04-22 03:07 21.13360 -102.80333 20390 ft 337 kts 212°
2026-04-22 03:07 21.11148 -102.81190 19850 ft 339 kts 193°
2026-04-22 03:08 21.08794 -102.81246 19300 ft 334 kts 176°
2026-04-22 03:08 21.06534 -102.80907 18731 ft 320 kts 174°
2026-04-22 03:08 21.04375 -102.80584 18177 ft 308 kts 175°
2026-04-22 03:08 21.02285 -102.80297 17631 ft 305 kts 175°
2026-04-22 03:09 21.00174 -102.80001 17063 ft 305 kts 174°
2026-04-22 03:09 20.98059 -102.79694 16437 ft 306 kts 174°
2026-04-22 03:09 20.95952 -102.79380 15804 ft 303 kts 173°
2026-04-22 03:09 20.93897 -102.79044 15187 ft 300 kts 173°
2026-04-22 03:10 20.91836 -102.78709 14569 ft 297 kts 173°
2026-04-22 03:10 20.89796 -102.78379 13930 ft 294 kts 173°
2026-04-22 03:10 20.87804 -102.78058 13302 ft 292 kts 172°
2026-04-22 03:10 20.85806 -102.77736 12683 ft 286 kts 172°
2026-04-22 03:11 20.83855 -102.77422 12051 ft 279 kts 172°
2026-04-22 03:11 20.81969 -102.77121 11425 ft 274 kts 172°
2026-04-22 03:11 20.80091 -102.76819 10790 ft 269 kts 172°
2026-04-22 03:11 20.78218 -102.76516 10176 ft 276 kts 172°
2026-04-22 03:12 20.76369 -102.76219 10165 ft 261 kts 172°
2026-04-22 03:12 20.73013 -102.75625 11961 ft 243 kts 168°
2026-04-22 03:12 20.71277 -102.75165 12289 ft 260 kts 165°
2026-04-22 03:13 20.69695 -102.74454 13579 ft 238 kts 147°
2026-04-22 03:13 20.68412 -102.73353 14165 ft 245 kts 138°
2026-04-22 03:13 20.67142 -102.72053 14420 ft 276 kts 135°
2026-04-22 03:13 20.65808 -102.70577 14477 ft 258 kts 136°
2026-04-22 03:14 20.64551 -102.69389 14787 ft 234 kts 143°
2026-04-22 03:14 20.63158 -102.68316 15118 ft 253 kts 145°
2026-04-22 03:14 20.61742 -102.67180 15131 ft 252 kts 146°
2026-04-22 03:14 20.60236 -102.66149 14545 ft 262 kts 149°
2026-04-22 03:15 20.58656 -102.65088 14005 ft 272 kts 147°
2026-04-22 03:15 20.57068 -102.63931 13458 ft 278 kts 145°
2026-04-22 03:15 20.55489 -102.62741 12953 ft 282 kts 149°
2026-04-22 03:15 20.53639 -102.61996 12409 ft 285 kts 169°
2026-04-22 03:16 20.51680 -102.61697 11887 ft 288 kts 175°
2026-04-22 03:16 20.49663 -102.61492 11365 ft 291 kts 175°
2026-04-22 03:16 20.47658 -102.61275 10856 ft 295 kts 175°
2026-04-22 03:16 20.45609 -102.61032 10325 ft 297 kts 174°
2026-04-22 03:17 20.43576 -102.60779 10262 ft 281 kts 174°
2026-04-22 03:17 20.41813 -102.60544 11132 ft 223 kts 174°
2026-04-22 03:17 20.40448 -102.60390 11681 ft 185 kts 181°
2026-04-22 03:17 20.39035 -102.60617 10786 ft 233 kts 206°
2026-04-22 03:18 20.37736 -102.61758 10395 ft 249 kts 239°
2026-04-22 03:18 20.37017 -102.63399 10504 ft 245 kts 256°
2026-04-22 03:18 20.36789 -102.65243 9902 ft 269 kts 272°
2026-04-22 03:18 20.37096 -102.67317 9189 ft 296 kts 284°
2026-04-22 03:19 20.37510 -102.69372 9906 ft 259 kts 275°
2026-04-22 03:19 20.37590 -102.71070 10801 ft 210 kts 274°
2026-04-22 03:19 20.37692 -102.72634 10398 ft 219 kts 275°
2026-04-22 03:19 20.37793 -102.74258 10039 ft 220 kts 274°
2026-04-22 03:20 20.37929 -102.75843 9939 ft 208 kts 276°
2026-04-22 03:20 20.38109 -102.77386 9590 ft 214 kts 277°
2026-04-22 03:20 20.38285 -102.79029 9327 ft 232 kts 275°
2026-04-22 03:20 20.38434 -102.80765 8994 ft 234 kts 275°
2026-04-22 03:21 20.38664 -102.82486 8654 ft 232 kts 279°
2026-04-22 03:21 20.38921 -102.84143 8481 ft 227 kts 277°
2026-04-22 03:21 20.39116 -102.85815 8323 ft 221 kts 276°
2026-04-22 03:21 20.39290 -102.87380 8256 ft 204 kts 276°
2026-04-22 03:22 20.39443 -102.88822 8220 ft 188 kts 275°
2026-04-22 03:22 20.39571 -102.90199 8071 ft 184 kts 276°
2026-04-22 03:22 20.39712 -102.91526 7969 ft 181 kts 276°
2026-04-22 03:22 20.39821 -102.92861 7919 ft 179 kts 272°
2026-04-22 03:23 20.39894 -102.94213 7995 ft 189 kts 273°
2026-04-22 03:23 20.39994 -102.95631 8360 ft 199 kts 274°
2026-04-22 03:23 20.40114 -102.97132 8603 ft 204 kts 275°
2026-04-22 03:23 20.40264 -102.98670 8758 ft 210 kts 275°
2026-04-22 03:24 20.40399 -103.00221 8762 ft 210 kts 277°
2026-04-22 03:24 20.40753 -103.01709 8759 ft 209 kts 287°
2026-04-22 03:24 20.41177 -103.03190 8749 ft 208 kts 285°
2026-04-22 03:24 20.41541 -103.04689 8753 ft 208 kts 282°
2026-04-22 03:25 20.41848 -103.06197 8572 ft 212 kts 281°
2026-04-22 03:25 20.42149 -103.07727 8199 ft 213 kts 285°
2026-04-22 03:25 20.42722 -103.09172 7846 ft 210 kts 296°
2026-04-22 03:25 20.43388 -103.10525 7756 ft 198 kts 296°
2026-04-22 03:26 20.43988 -103.11794 8202 ft 178 kts 295°
2026-04-22 03:26 20.44512 -103.12973 8738 ft 185 kts 294°
2026-04-22 03:26 20.45029 -103.14150 9057 ft 166 kts 294°
2026-04-22 03:26 20.45489 -103.15211 8909 ft 153 kts 292°
2026-04-22 03:27 20.45923 -103.16276 8369 ft 163 kts 291°
2026-04-22 03:27 20.46382 -103.17337 8164 ft 148 kts 294°
2026-04-22 03:27 20.46814 -103.18294 7880 ft 138 kts 292°
2026-04-22 03:27 20.47220 -103.19210 7489 ft 137 kts 292°
2026-04-22 03:28 20.47610 -103.20113 7173 ft 132 kts 292°
2026-04-22 03:28 20.47995 -103.21020 6873 ft 138 kts 291°
2026-04-22 03:28 20.48359 -103.21992 6749 ft 143 kts 292°
2026-04-22 03:28 20.48756 -103.22983 6628 ft 146 kts 293°
2026-04-22 03:29 20.49144 -103.23926 6422 ft 140 kts 292°
2026-04-22 03:29 20.49534 -103.24881 6272 ft 138 kts 291°
2026-04-22 03:29 20.49923 -103.25789 6107 ft 131 kts 292°
2026-04-22 03:29 20.50313 -103.26670 5874 ft 135 kts 291°
2026-04-22 03:30 20.50685 -103.27584 5633 ft 132 kts 291°
2026-04-22 03:30 20.51066 -103.28500 5323 ft 138 kts 292°
2026-04-22 03:30 20.51471 -103.29438 5075 ft 138 kts 293°
2026-04-22 03:30 20.51833 -103.30309 5015 ft 110 kts 293°
2026-04-22 03:31 20.52077 -103.30871 5020 ft 58 kts 296°
2026-04-22 03:31 20.52211 -103.31221 5022 ft 39 kts 296°
2026-04-22 03:31 20.52318 -103.31420 5020 ft 28 kts 313°
2026-04-22 03:31 20.52438 -103.31537 5019 ft 11 kts 322°
2026-04-22 03:32 20.52502 -103.31587 5019 ft 10 kts 331°
2026-04-22 03:32 20.52571 -103.31588 5019 ft 11 kts 23°
2026-04-22 03:32 20.52652 -103.31548 5018 ft 15 kts 25°
2026-04-22 03:32 20.52734 -103.31510 5018 ft 9 kts 24°
2026-04-22 03:33 20.52778 -103.31475 5018 ft 8 kts 63°
2026-04-22 03:33 20.52767 -103.31437 5016 ft 7 kts 124°
2026-04-22 03:33 20.52729 -103.31369 5018 ft 14 kts 113°
2026-04-22 03:33 20.52679 -103.31252 5018 ft 19 kts 115°
2026-04-22 03:34 20.52622 -103.31116 5018 ft 21 kts 113°
2026-04-22 03:34 20.52563 -103.30974 5018 ft 22 kts 114°
2026-04-22 03:34 20.52500 -103.30828 5018 ft 22 kts 114°
2026-04-22 03:34 20.52435 -103.30676 5018 ft 23 kts 114°
2026-04-22 03:35 20.52367 -103.30503 5018 ft 28 kts 113°
2026-04-22 03:35 20.52287 -103.30322 5018 ft 25 kts 115°
2026-04-22 03:35 20.52313 -103.30240 5016 ft 7 kts
2026-04-22 03:35 20.52368 -103.30223 5017 ft 11 kts 20°
2026-04-22 03:36 20.52406 -103.30220 5017 ft 3 kts 315°
2026-04-22 03:36 20.52426 -103.30265 5017 ft 8 kts 289°
2026-04-22 03:36 20.52446 -103.30280 5017 ft 3 kts 27°
2026-04-22 03:36 20.52476 -103.30262 5017 ft 2 kts 21°
2026-04-22 03:37 20.52486 -103.30258 5017 ft 0 kts 21°